Regional Weather Roundup
Issued by NWS

Home | Current Version | Previous Version | Graphics & Text | Print | Product List | Glossary On
Versions: 1 2 3 4 5 6 7 8 9 10 11 12 13 14 15 16 17 18 19 20 21 22 23 24 25 26 27
000
ASUS45 KBOI 040910
RWRID

IDAHO REGIONAL WEATHER ROUNDUP
NATIONAL WEATHER SERVICE BOISE ID
200 AM MST SUN DEC 04 2016

NOTE: "FAIR" INDICATES FEW OR NO CLOUDS BELOW 12000 FEET
WITH NO SIGNIFICANT WEATHER AND/OR OBSTRUCTIONS TO VISIBILITY

IDZ012-014-041000-
SOUTHWEST IDAHO


CITY           SKY/WX    TMP DP  RH WIND       PRES   REMARKS
BOISE          CLOUDY    37  28  70 SE9       30.13F WCI  30
CALDWELL       CLOUDY    36  27  69 SE6       30.15F WCI  31
MOUNTAIN HOME  MOCLDY    29  27  92 E10       30.13F WCI  19
$$

IDZ016-017-041000-
SOUTHCENTRAL IDAHO


CITY           SKY/WX    TMP DP  RH WIND       PRES   REMARKS
BURLEY         MOCLDY    34  21  59 SW18      30.13F WCI  23
JEROME         PTCLDY    32  22  66 S3        30.15F
TWIN FALLS     PTCLDY    34  19  54 S15       30.14S WCI  24
$$

IDZ019>023-041000-
SOUTHEAST IDAHO


CITY           SKY/WX    TMP DP  RH WIND       PRES   REMARKS
IDAHO FALLS    CLOUDY    32  23  69 S15       30.11F WCI  22
POCATELLO      CLOUDY    33  23  66 S17       30.12F WCI  22
REXBURG        CLOUDY    26  24  92 W5        30.10F WCI  20
$$

IDZ006-010-011-018-031-032-041000-
CENTRAL IDAHO MOUNTAINS


CITY           SKY/WX    TMP DP  RH WIND       PRES   REMARKS
MCCALL         CLOUDY    27  23  85 CALM      30.04F
HAILEY         PTCLDY    21  18  86 NW7       30.12F WCI  13
STANLEY          N/A     22  15  75 S5        30.07F WCI  16
SALMON         CLOUDY    25  18  74 CALM      30.04F
CHALLIS        CLOUDY    24  19  81 CALM      30.04F
$$

IDZ002-004-006-007-026-041000-
NORTHERN IDAHO


CITY           SKY/WX    TMP DP  RH WIND       PRES   REMARKS
LEWISTON       LGT RAIN  45  32  60 S16       30.02F
LOWELL           N/A     36  33  89 NW3       30.11F
COEUR D`ALENE  LGT RAIN  38  32  79 S3        29.92F
MULLAN PASS    SNOW      24  22  91 SW9G17    29.83F VSB 1/2 WCI  14
$$




USA.gov is the U.S. government's official web portal to all federal, state and local government web resources and services.